COSMOS 1275 DEB, 12675

Orbit data source: Space-Track

COSMOS 1275 DEB, 12675 is space debris in LEO originally from a launch on Thu, 04 Jun 1981 UTC launched from the Plesetsk Missile And Space Complex (PKMTR). Debris objects in space refer to the collection of defunct objects orbiting the Earth. Examples of debris include non-operational satellites, rocket bodies, and fragments generated from explosions, collisions, or faulty payload assembly.

Loading next visibility...
Identifier
12675, 1981-053AF
Orbit
LEO
Country
Flag of CISCIS
Related business
Manufacturer
Unknown
Mission
Spacecraft
Bus & Motor
Unknown
Mass
Unknown
Launch date (UTC)
1981-06-04 (45 years ago)
Launch vehicle
Unknown
Launch site
Plesetsk Missile And Space Complex (PKMTR)
Object type
Payload
Rocket body
Debris
Shape & HBR
Unknown shape, 0.3 m
Radar Cross Section
Medium (>0.1 m² and <1 m²)

Expand to show TLE details & history
Last TLE update: 5 days ago

TLE from 5 days ago
0 COSMOS 1275 DEB
1 12675U 81053AF  26154.31638199  .00000557  00000-0  50629-3 0  9998
2 12675  82.9354 272.6373 0062247 324.0708  93.5122 13.80983722246635
Epoch: 2026-06-03T07:35Z
TLE epoch observation values (Epoch: 2026-06-03T07:35:35.403Z)
Latitude
57.69311°
Longitude
-81.79426°
Altitude
973.188 km
Speed
7.369 km/s
True Right ascension
18h 55m 31s
True Declination
57° 32' 32"
Sunlit
Object was in daylight at epoch
Visualization orbit readout
Latitude
Unknown
Longitude
Unknown
Altitude
Unknown
Speed
Unknown
Apparent Right ascension
Unknown
Apparent Declination
Unknown
Sunlit
N/A
Visualization observer readout
Local Sidereal Time
03:05:29
Azimuth
Unknown
Elevation
Unknown
Doppler factor
Unknown
Orbital elements
Apogee altitude
1,003.203 km
Perigee altitude
911.878 km
Semi-major axis
7,335.677 km
Eccentricity
0.00622
Inclination
82.9354°
RAAN
272.6373°
Arg. of periapsis
324.0708°
True anomaly
94.2238°
Mean anomaly
93.5122°
Eccentric anomaly
93.86804°
Mean motion
3.45448 °/min
Orbital period
104.21 mins
BSTAR
0.00050629
Loading maneuver chart data...
Computing Atmospheric mass density...

Documentation

Showing up to 5 results
|